TimeCST,TemperatureF,Dew PointF,Humidity,Sea Level PressureIn,VisibilityMPH,Wind Direction,Wind SpeedMPH,Gust SpeedMPH,PrecipitationIn,Events,Conditions,WindDirDegrees,DateUTC
12:17 AM,33.8,24.8,70,29.99,10.0,SE,12.7,-,N/A,,Overcast,130,2012-12-09 06:17:00
12:54 AM,33.1,25.0,72,30.02,10.0,ESE,10.4,-,N/A,,Overcast,110,2012-12-09 06:54:00
1:47 AM,32.0,24.8,75,29.98,1.8,ESE,11.5,-,0.00,Snow,Light Snow,120,2012-12-09 07:47:00
1:54 AM,32.0,26.1,79,30.02,0.8,ESE,9.2,-,0.01,Snow,Light Snow,120,2012-12-09 07:54:00
2:01 AM,32.0,26.6,80,29.97,0.8,ESE,11.5,-,0.00,Snow,Light Snow,120,2012-12-09 08:01:00
2:10 AM,30.2,26.6,86,29.97,1.0,ESE,10.4,-,0.01,Snow,Light Snow,120,2012-12-09 08:10:00
2:16 AM,30.2,26.6,86,29.97,1.5,ESE,10.4,-,0.01,Snow,Light Snow,110,2012-12-09 08:16:00
2:24 AM,30.2,26.6,86,29.97,1.2,ESE,10.4,-,0.01,Snow,Light Snow,110,2012-12-09 08:24:00
2:43 AM,32.0,28.4,87,29.97,1.8,ESE,10.4,-,0.02,Snow,Light Snow,120,2012-12-09 08:43:00
2:52 AM,32.0,28.4,87,29.97,2.0,ESE,9.2,-,0.02,Snow,Light Snow,120,2012-12-09 08:52:00
2:54 AM,32.0,28.0,85,30.01,2.0,ESE,9.2,-,0.02,Snow,Light Snow,120,2012-12-09 08:54:00
3:02 AM,32.0,28.4,87,29.96,1.5,ESE,10.4,-,0.01,Snow,Light Snow,110,2012-12-09 09:02:00
3:09 AM,32.0,28.4,87,29.96,1.2,ESE,11.5,-,0.01,Snow,Light Snow,110,2012-12-09 09:09:00
3:29 AM,32.0,28.4,87,29.95,1.2,East,10.4,-,0.02,Snow,Light Snow,100,2012-12-09 09:29:00
3:52 AM,32.0,28.4,87,29.95,1.8,ESE,10.4,-,0.03,Snow,Light Snow,110,2012-12-09 09:52:00
3:54 AM,32.0,28.0,85,29.99,2.0,ESE,12.7,-,0.03,Snow,Light Snow,110,2012-12-09 09:54:00
4:27 AM,32.0,28.4,87,29.96,4.0,SE,11.5,-,0.00,,Overcast,130,2012-12-09 10:27:00
4:45 AM,32.0,28.4,87,29.95,5.0,ESE,15.0,-,0.00,Snow,Light Snow,120,2012-12-09 10:45:00
4:54 AM,32.0,28.0,85,29.99,2.0,SE,13.8,-,0.00,Snow,Light Snow,130,2012-12-09 10:54:00
5:03 AM,32.0,28.4,87,29.94,1.5,ESE,12.7,-,0.01,Snow,Light Snow,120,2012-12-09 11:03:00
5:54 AM,32.0,28.0,85,29.96,1.5,ESE,17.3,-,0.01,Snow,Light Snow,120,2012-12-09 11:54:00
5:58 AM,32.0,28.4,87,29.91,2.0,ESE,18.4,-,0.00,Snow,Light Snow,120,2012-12-09 11:58:00
6:02 AM,32.0,28.4,87,29.91,1.8,ESE,16.1,-,0.00,Snow,Light Snow,120,2012-12-09 12:02:00
6:23 AM,32.0,28.4,87,29.91,2.0,ESE,18.4,-,0.00,Snow,Light Snow,120,2012-12-09 12:23:00
6:54 AM,32.0,28.0,85,29.96,2.0,ESE,15.0,-,0.01,Snow,Light Snow,120,2012-12-09 12:54:00
7:17 AM,32.0,28.4,87,29.91,1.5,ESE,17.3,-,0.00,Snow,Light Snow,120,2012-12-09 13:17:00
7:26 AM,32.0,28.4,87,29.90,1.2,ESE,17.3,24.2,0.01,Snow,Light Snow,120,2012-12-09 13:26:00
7:40 AM,32.0,28.4,87,29.89,1.5,ESE,17.3,-,0.01,Snow,Light Snow,120,2012-12-09 13:40:00
7:54 AM,32.0,28.0,85,29.95,1.0,ESE,17.3,-,0.01,Snow,Light Snow,120,2012-12-09 13:54:00
8:30 AM,32.0,28.4,87,29.90,0.8,ESE,13.8,-,0.01,Snow,Light Snow,120,2012-12-09 14:30:00
8:54 AM,33.1,28.9,85,29.96,0.5,ESE,15.0,-,0.02,Fog-Snow,Snow,120,2012-12-09 14:54:00
9:03 AM,32.0,28.4,87,29.91,0.5,ESE,13.8,-,0.01,Fog-Snow,Snow,110,2012-12-09 15:03:00
9:17 AM,33.8,28.4,81,29.90,0.2,ESE,13.8,-,0.02,Fog-Snow,Snow,110,2012-12-09 15:17:00
9:25 AM,33.8,28.4,81,29.90,0.5,ESE,13.8,-,0.02,Fog-Snow,Snow,110,2012-12-09 15:25:00
9:37 AM,33.8,28.4,81,29.89,0.5,ESE,13.8,-,0.03,Fog-Snow,Snow,110,2012-12-09 15:37:00
9:54 AM,33.1,28.9,85,29.94,0.5,ESE,12.7,-,0.04,Fog-Snow,Snow,110,2012-12-09 15:54:00
10:01 AM,33.8,28.4,81,29.89,0.5,ESE,13.8,-,0.01,Fog-Snow,Snow,110,2012-12-09 16:01:00
10:35 AM,33.8,28.4,81,29.87,1.0,ESE,16.1,-,0.02,Snow,Light Snow,110,2012-12-09 16:35:00
10:42 AM,33.8,28.4,81,29.87,0.8,ESE,12.7,-,0.02,Snow,Light Snow,110,2012-12-09 16:42:00
10:54 AM,33.1,28.9,85,29.91,0.8,ESE,12.7,-,0.03,Snow,Light Snow,110,2012-12-09 16:54:00
11:04 AM,33.8,28.4,81,29.86,1.0,ESE,15.0,-,0.00,Snow,Light Snow,110,2012-12-09 17:04:00
11:47 AM,33.8,28.4,81,29.83,1.5,ESE,13.8,-,0.01,Snow,Light Snow,110,2012-12-09 17:47:00
11:54 AM,33.1,28.9,85,29.88,2.0,ESE,12.7,-,0.01,Snow,Light Snow,110,2012-12-09 17:54:00
12:17 PM,33.8,28.4,81,29.81,1.5,East,15.0,-,0.00,Snow,Light Snow,100,2012-12-09 18:17:00
12:26 PM,33.8,28.4,81,29.80,1.2,ESE,16.1,-,0.01,Snow,Light Snow,110,2012-12-09 18:26:00
12:47 PM,33.8,28.4,81,29.80,0.8,ESE,11.5,-,0.01,Snow,Light Snow,110,2012-12-09 18:47:00
12:54 PM,33.1,28.9,85,29.84,0.8,ESE,10.4,-,0.01,Snow,Light Snow,110,2012-12-09 18:54:00
1:01 PM,33.8,28.4,81,29.79,1.0,ESE,12.7,-,0.00,Snow,Light Snow,110,2012-12-09 19:01:00
1:44 PM,33.8,28.4,81,29.78,1.0,ESE,11.5,-,0.01,Snow,Light Snow,110,2012-12-09 19:44:00
1:54 PM,33.1,28.9,85,29.82,0.8,ESE,12.7,-,0.02,Snow,Light Snow,110,2012-12-09 19:54:00
2:28 PM,33.8,28.4,81,29.77,0.5,ESE,8.1,-,0.03,Fog-Snow,Light Snow,110,2012-12-09 20:28:00
2:36 PM,33.8,28.4,81,29.77,0.8,ESE,8.1,-,0.03,Snow,Light Snow,110,2012-12-09 20:36:00
2:49 PM,33.8,30.2,87,29.77,0.8,ESE,8.1,-,0.04,Snow,Light Snow,110,2012-12-09 20:49:00
2:54 PM,33.1,28.9,85,29.81,0.8,East,9.2,-,0.04,Snow,Light Snow,100,2012-12-09 20:54:00
3:04 PM,33.8,28.4,81,29.77,0.5,East,9.2,-,0.01,Fog-Snow,Snow,100,2012-12-09 21:04:00
3:15 PM,33.8,28.4,81,29.78,0.2,East,8.1,-,0.02,Fog-Snow,Heavy Snow,100,2012-12-09 21:15:00
3:28 PM,33.8,30.2,87,29.78,0.5,East,6.9,-,0.04,Fog-Snow,Snow,100,2012-12-09 21:28:00
3:36 PM,33.8,30.2,87,29.78,0.5,East,5.8,-,0.04,Fog-Snow,Snow,100,2012-12-09 21:36:00
3:54 PM,33.1,30.0,89,29.82,0.5,East,8.1,-,0.06,Fog-Snow,Snow,90,2012-12-09 21:54:00
4:34 PM,33.8,28.4,81,29.77,0.5,East,5.8,-,0.01,Snow,Light Snow,80,2012-12-09 22:34:00
4:41 PM,33.8,28.4,81,29.77,2.0,ENE,4.6,-,0.01,Snow,Light Snow,60,2012-12-09 22:41:00
4:54 PM,32.0,28.9,88,29.81,2.5,ENE,5.8,-,0.01,Snow,Light Snow,60,2012-12-09 22:54:00
5:17 PM,32.0,28.4,87,29.77,1.8,ENE,6.9,-,0.01,Snow,Light Snow,60,2012-12-09 23:17:00
5:20 PM,32.0,28.4,87,29.77,1.0,ENE,6.9,-,0.01,Snow,Light Snow,70,2012-12-09 23:20:00
5:31 PM,32.0,28.4,87,29.77,1.0,ENE,6.9,-,0.01,Snow,Light Snow,60,2012-12-09 23:31:00
5:45 PM,32.0,28.4,87,29.77,1.5,ENE,6.9,-,0.01,Snow,Light Snow,70,2012-12-09 23:45:00
5:54 PM,32.0,28.9,88,29.81,1.5,ENE,5.8,-,0.02,Snow,Light Snow,60,2012-12-09 23:54:00
6:03 PM,32.0,28.4,87,29.76,2.5,NE,6.9,-,0.00,,Overcast,50,2012-12-10 00:03:00
6:31 PM,30.2,28.4,93,29.76,5.0,ENE,6.9,-,0.00,,Overcast,60,2012-12-10 00:31:00
6:47 PM,30.2,28.4,93,29.76,6.0,ENE,6.9,-,0.00,,Overcast,60,2012-12-10 00:47:00
6:54 PM,30.9,28.0,89,29.81,6.0,ENE,6.9,-,0.00,,Overcast,60,2012-12-10 00:54:00
7:24 PM,32.0,28.4,87,29.76,2.5,NE,5.8,-,N/A,,Overcast,40,2012-12-10 01:24:00
7:35 PM,32.0,28.4,87,29.76,2.0,NNE,6.9,-,0.00,Rain,Light Freezing Rain,30,2012-12-10 01:35:00
7:54 PM,32.0,28.0,85,29.80,2.5,NNE,8.1,-,0.00,Rain,Light Freezing Rain,30,2012-12-10 01:54:00
8:09 PM,30.2,28.4,93,29.75,3.0,NNE,10.4,-,0.00,Rain,Light Freezing Rain,30,2012-12-10 02:09:00
8:46 PM,30.2,26.6,86,29.76,3.0,North,13.8,-,0.00,Snow,Light Snow,10,2012-12-10 02:46:00
8:54 PM,30.9,27.0,85,29.81,4.0,North,11.5,-,0.00,,Overcast,10,2012-12-10 02:54:00
9:08 PM,30.2,26.6,86,29.76,3.0,North,10.4,-,0.00,Rain,Light Freezing Rain,10,2012-12-10 03:08:00
9:36 PM,30.2,26.6,86,29.77,2.5,North,12.7,-,0.00,Snow,Light Snow,350,2012-12-10 03:36:00
9:52 PM,30.2,26.6,86,29.77,4.0,North,13.8,-,0.00,Snow,Light Snow,350,2012-12-10 03:52:00
9:54 PM,30.0,26.1,85,29.81,4.0,North,15.0,-,0.00,Snow,Light Snow,350,2012-12-10 03:54:00
10:46 PM,28.4,24.8,86,29.78,7.0,North,13.8,-,0.00,,Overcast,350,2012-12-10 04:46:00
10:54 PM,28.9,25.0,85,29.83,9.0,North,15.0,-,0.00,,Overcast,350,2012-12-10 04:54:00
11:54 PM,28.9,24.1,82,29.85,10.0,NNW,18.4,24.2,0.00,,Overcast,340,2012-12-10 05:54:00